#timestamp,LO_Frequency,Hit,StdDev 
1511481615.0,286046996.6,N
1511481616.0,286046996.6,N
1511481635.8,286046997.0,N
1511481655.6,286046994.9,N
1511481675.4,286046991.3,N
1511481695.3,286046985.6,Y
1511481715.1,286046988.8,P
1511481735.8,286046993.9,N
1511481755.7,286046997.1,N
1511481775.5,286046999.0,N
1511481795.3,286047001.6,N
1511481815.2,286047000.1,N
1511481835.9,286047008.8,N
1511481855.7,286047003.0,N
1511481875.6,286047005.9,N
1511481895.4,286047005.6,N
1511481915.2,286047005.7,N
1511481935.1,286047004.3,N
1511481936.0,286047004.3,N
1511481955.8,286047004.0,N
1511481975.6,286047001.6,N
1511481995.5,286047002.0,N
1511482015.3,286047004.0,N
1511482035.1,286047003.8,N
1511482055.8,286047005.1,N
1511482075.7,286047003.5,N
1511482095.5,286047004.1,N
1511482115.3,286047003.3,N
1511482135.2,286047003.3,N
1511482155.9,286047007.9,N
1511482175.7,286047012.8,N
1511482195.6,286047020.1,Y
1511482215.4,286047021.4,P
1511482235.2,286047030.0,P
1511482255.1,286047025.3,N
1511482256.0,286047025.3,N
1511482275.8,286047029.7,Y
1511482295.6,286047010.6,P
1511482315.5,286047010.3,N
1511482335.3,286047015.0,P
1511482355.1,286047014.6,Y
1511482375.9,286046999.4,P
1511482395.7,286046995.5,N
1511482415.5,286047005.1,N
1511482435.4,286047008.1,N
1511482455.2,286047006.1,N
1511482475.0,286047005.7,N
1511482475.9,286047005.7,N
1511482495.8,286047001.3,N
1511482515.6,286047005.1,N
1511482535.4,286047002.6,N
1511482555.3,286047000.7,N
1511482575.1,286046999.1,N
1511482576.0,286046999.1,N
1511482595.8,286046997.0,N
1511482615.6,286046995.0,N
1511482635.5,286046991.8,N
1511482655.3,286046989.0,N
1511482675.1,286046984.0,N
1511482695.9,286046983.3,N
1511482715.7,286046986.3,N
1511482735.5,286046988.3,N
1511482755.4,286046984.2,N
1511482775.2,286046985.3,N
1511482795.0,286046983.4,N
1511482795.9,286046983.4,N
1511482815.8,286046980.0,N
1511482835.6,286046981.2,N
1511482855.4,286046979.7,N
1511482875.3,286046984.3,N
1511482895.1,286046989.4,N
1511482896.0,286046989.4,N
1511482915.8,286046986.7,N
1511482935.6,286046980.9,N
1511482955.5,286046972.5,Y
1511482975.3,286046983.3,P
1511482995.1,286046989.0,N
1511483015.9,286046985.6,P
1511483035.7,286046985.6,Y
1511483055.6,286047002.6,P
1511483075.4,286046999.8,N
1511483095.2,286047001.2,N
1511483115.0,286046999.2,N
1511483115.9,286046999.2,N
1511483135.8,286046997.2,N
1511483155.6,286046994.0,N
1511483175.4,286046991.5,N
1511483195.3,286046988.0,N
1511483215.1,286046988.2,N
1511483235.8,286046994.1,N
1511483255.7,286047002.4,N
1511483275.5,286047001.7,N
1511483295.3,286047003.7,N
1511483315.2,286047010.7,N
1511483335.9,286047011.9,N
1511483355.7,286047009.8,N
1511483375.6,286047013.8,N
1511483395.4,286047016.1,N
1511483415.2,286047019.1,N
1511483435.0,286047020.3,N
1511483436.0,286047020.3,N
1511483455.8,286047015.2,N
1511483475.6,286047009.5,N
1511483495.4,286047011.2,N
1511483515.3,286047017.6,N
1511483535.1,286047017.4,N
1511483555.8,286047017.1,N
1511483575.7,286047008.7,N
1511483595.5,286047000.1,N
1511483615.3,286047000.3,N
1511483635.2,286046995.9,N
1511483655.9,286046998.5,N
1511483675.7,286046996.3,N
1511483695.6,286046991.6,N
1511483715.4,286046984.6,N
1511483735.2,286046984.0,N
1511483755.0,286046984.3,N
1511483756.0,286046984.3,N
1511483775.8,286046986.8,N
1511483795.6,286046981.0,N
1511483815.4,286046978.9,N
1511483835.3,286046978.8,N
1511483855.1,286046978.7,N
1511483875.8,286046981.8,N
1511483895.7,286046985.9,N
1511483915.5,286046982.6,N
1511483935.3,286046977.4,N
1511483955.2,286046977.3,N
1511483975.9,286046985.9,N
1511483995.7,286046995.3,N
1511484015.6,286046995.7,N
1511484035.4,286047001.1,N
1511484055.2,286046999.1,N
1511484075.1,286046995.5,N
1511484076.0,286046995.5,N
1511484095.8,286046995.5,N
1511484115.6,286046991.7,N
1511484135.4,286046989.4,N
1511484155.3,286046984.4,N
1511484175.1,286046988.0,N
1511484195.8,286046987.1,N
1511484215.7,286046988.8,N
1511484235.5,286046994.3,N
1511484255.3,286046987.3,N
1511484275.2,286046983.9,N
1511484295.9,286046985.2,N
1511484315.7,286046978.9,Y
1511484335.6,286046987.8,P
1511484355.4,286046989.2,P
1511484375.2,286046991.2,P
1511484395.1,286046988.0,Y
1511484396.0,286046988.0,P
1511484415.8,286046996.5,P
1511484435.6,286047003.1,N
1511484455.5,286047008.1,N
1511484475.3,286047008.8,N
1511484495.1,286047011.1,N
1511484515.9,286047013.4,N
1511484535.7,286047007.2,N
1511484555.5,286047007.6,N
1511484575.4,286047007.0,N
1511484595.2,286047005.4,N
1511484615.0,286047004.8,N
1511484615.9,286047004.8,N
1511484635.8,286047003.5,N
1511484655.6,286047005.6,N
1511484675.4,286047001.3,N
1511484695.2,286047000.2,N
1511484715.1,286046999.1,N
1511484716.0,286046999.1,N
1511484735.8,286046999.4,N
1511484755.6,286046993.7,N
1511484775.5,286046994.3,N
1511484795.3,286046992.7,N
1511484815.1,286046989.5,N
1511484835.9,286046986.9,N
1511484855.7,286046986.3,N
1511484875.5,286046986.1,N
1511484895.4,286046983.4,N
1511484915.2,286046979.8,N
1511484935.0,286046983.1,N
1511484935.9,286046983.1,N
1511484955.8,286046980.9,N
1511484975.6,286046979.3,N
1511484995.4,286046979.4,N
1511485015.2,286046977.8,N
1511485035.1,286046980.2,N
1511485036.0,286046980.2,N
1511485055.8,286046980.8,N
1511485075.6,286046980.7,N
1511485095.5,286046986.1,N
1511485115.3,286046987.9,N
1511485135.1,286046987.3,N
1511485155.9,286046990.0,N
1511485175.7,286046991.2,N
1511485195.5,286046989.8,N
